#�ϑ�����,���ϕ���,���ϕ���,�ő啗��,�ő啗����������,�ő�u�ԕ���,�ő�u�ԕ�����������,,,,,,,,,,,,,,,,,,,,,,
#(�N����),(m/s)   ,(16����),(m/s)   ,(16����)        ,(m/s)       ,(16����)            ,,,,,,,,,,,,,,,,,,,,,,
2013/10/26 0:01,8.2,16,8.2,16,15.2,16,,,,,,,,,,,,,,,,,,,,,,
2013/10/26 0:02,8.2,16,8.3,16,15.4,1,,,,,,,,,,,,,,,,,,,,,,
2013/10/26 0:03,8.5,16,8.5,16,14.3,1,,,,,,,,,,,,,,,,,,,,,,
2013/10/26 0:04,8.5,16,8.7,16,15.8,16,,,,,,,,,,,,,,,,,,,,,,
2013/10/26 0:05,8.4,16,8.5,16,10.8,1,,,,,,,,,,,,,,,,,,,,,,
2013/10/26 0:06,7.9,16,8.3,16,10,1,,,,,,,,,,,,,,,,,,,,,,
2013/10/26 0:07,7.7,16,7.9,16,12.6,1,,,,,,,,,,,,,,,,,,,,,,
2013/10/26 0:08,7.5,16,7.6,16,15.4,16,,,,,,,,,,,,,,,,,,,,,,
2013/10/26 0:09,7.6,16,7.6,16,12.5,1,,,,,,,,,,,,,,,,,,,,,,
2013/10/26 0:10,7.6,16,7.7,16,17,16,,,,,,,,,,,,,,,,,,,,,,
2013/10/26 0:11,7.5,16,7.7,16,16.6,16,,,,,,,,,,,,,,,,,,,,,,
2013/10/26 0:12,7.5,16,7.6,16,12.7,15,,,,,,,,,,,,,,,,,,,,,,
2013/10/26 0:13,7.6,16,7.6,16,13.3,16,,,,,,,,,,,,,,,,,,,,,,
2013/10/26 0:14,7.6,16,7.6,16,18.1,1,,,,,,,,,,,,,,,,,,,,,,
2013/10/26 0:15,7.6,16,7.6,16,11,2,,,,,,,,,,,,,,,,,,,,,,
2013/10/26 0:16,8,16,8,16,13.4,16,,,,,,,,,,,,,,,,,,,,,,
2013/10/26 0:17,8,16,8.1,16,13.2,2,,,,,,,,,,,,,,,,,,,,,,
2013/10/26 0:18,7.9,16,8.1,16,15.3,16,,,,,,,,,,,,,,,,,,,,,,
2013/10/26 0:19,8,16,8,16,18.8,1,,,,,,,,,,,,,,,,,,,,,,
2013/10/26 0:20,8.4,16,8.4,16,18,16,,,,,,,,,,,,,,,,,,,,,,
2013/10/26 0:21,8.6,16,8.6,16,18.5,16,,,,,,,,,,,,,,,,,,,,,,
2013/10/26 0:22,9,16,9,16,15.7,16,,,,,,,,,,,,,,,,,,,,,,
2013/10/26 0:23,8.8,16,9,16,12.3,16,,,,,,,,,,,,,,,,,,,,,,
2013/10/26 0:24,8.6,16,8.7,16,14.9,15,,,,,,,,,,,,,,,,,,,,,,
2013/10/26 0:25,8.8,16,8.9,16,14.9,16,,,,,,,,,,,,,,,,,,,,,,
2013/10/26 0:26,8.7,16,9,16,18.7,2,,,,,,,,,,,,,,,,,,,,,,
2013/10/26 0:27,8.5,16,8.7,16,7.8,1,,,,,,,,,,,,,,,,,,,,,,
2013/10/26 0:28,8.3,16,8.4,16,15.4,2,,,,,,,,,,,,,,,,,,,,,,
2013/10/26 0:29,8.2,16,8.4,16,13.6,16,,,,,,,,,,,,,,,,,,,,,,
2013/10/26 0:30,7.8,16,8.1,16,14.5,16,,,,,,,,,,,,,,,,,,,,,,
2013/10/26 0:31,7.5,16,7.8,16,14.2,14,,,,,,,,,,,,,,,,,,,,,,
2013/10/26 0:32,7.4,16,7.6,16,15.3,1,,,,,,,,,,,,,,,,,,,,,,
2013/10/26 0:33,7.3,16,7.4,16,12.4,15,,,,,,,,,,,,,,,,,,,,,,
2013/10/26 0:34,7.2,16,7.4,16,9,15,,,,,,,,,,,,,,,,,,,,,,
2013/10/26 0:35,7.1,16,7.1,16,15.9,15,,,,,,,,,,,,,,,,,,,,,,
2013/10/26 0:36,7.1,16,7.1,16,12.8,2,,,,,,,,,,,,,,,,,,,,,,
2013/10/26 0:37,7.7,16,7.7,16,19.4,16,,,,,,,,,,,,,,,,,,,,,,
2013/10/26 0:38,8,16,8,16,19.2,3,,,,,,,,,,,,,,,,,,,,,,
2013/10/26 0:39,8.1,16,8.1,16,18.7,16,,,,,,,,,,,,,,,,,,,,,,
2013/10/26 0:40,8.1,16,8.2,16,16.7,1,,,,,,,,,,,,,,,,,,,,,,
2013/10/26 0:41,7.9,16,8,16,10.5,16,,,,,,,,,,,,,,,,,,,,,,
2013/10/26 0:42,7.6,16,7.9,16,11.9,2,,,,,,,,,,,,,,,,,,,,,,
2013/10/26 0:43,7.7,16,7.7,16,16.8,16,,,,,,,,,,,,,,,,,,,,,,
2013/10/26 0:44,8.1,16,8.1,16,18.4,15,,,,,,,,,,,,,,,,,,,,,,
2013/10/26 0:45,8.3,16,8.3,16,18.5,16,,,,,,,,,,,,,,,,,,,,,,
2013/10/26 0:46,8.4,16,8.5,16,15.8,16,,,,,,,,,,,,,,,,,,,,,,
2013/10/26 0:47,8.5,16,8.6,16,19.6,15,,,,,,,,,,,,,,,,,,,,,,
2013/10/26 0:48,8.5,16,8.6,16,13.8,15,,,,,,,,,,,,,,,,,,,,,,
2013/10/26 0:49,8.1,16,8.6,16,17.4,16,,,,,,,,,,,,,,,,,,,,,,
2013/10/26 0:50,8.3,16,8.3,16,23.9,16,,,,,,,,,,,,,,,,,,,,,,
2013/10/26 0:51,8.9,16,8.9,16,18.3,16,,,,,,,,,,,,,,,,,,,,,,
2013/10/26 0:52,8.8,16,8.9,16,14,16,,,,,,,,,,,,,,,,,,,,,,
2013/10/26 0:53,9.1,16,9.1,16,14.5,16,,,,,,,,,,,,,,,,,,,,,,
2013/10/26 0:54,9.1,16,9.2,16,21.4,16,,,,,,,,,,,,,,,,,,,,,,
2013/10/26 0:55,9.1,16,9.3,16,17,16,,,,,,,,,,,,,,,,,,,,,,
2013/10/26 0:56,9.3,16,9.3,16,21,16,,,,,,,,,,,,,,,,,,,,,,
2013/10/26 0:57,9.6,16,9.6,16,24,16,,,,,,,,,,,,,,,,,,,,,,
2013/10/26 0:58,9.7,16,9.8,16,17.5,1,,,,,,,,,,,,,,,,,,,,,,
2013/10/26 0:59,9.8,16,9.8,16,16.1,16,,,,,,,,,,,,,,,,,,,,,,
2013/10/26 1:00,9.7,16,10,16,14.4,1,,,,,,,,,,,,,,,,,,,,,,
2013/10/26 1:01,9.5,16,9.6,16,16.3,1,,,,,,,,,,,,,,,,,,,,,,
2013/10/26 1:02,9.8,16,9.8,16,15.4,15,,,,,,,,,,,,,,,,,,,,,,
2013/10/26 1:03,10,16,10,16,18.4,15,,,,,,,,,,,,,,,,,,,,,,
2013/10/26 1:04,10.2,16,10.2,16,21.9,1,,,,,,,,,,,,,,,,,,,,,,
2013/10/26 1:05,10.1,16,10.3,16,21.8,2,,,,,,,,,,,,,,,,,,,,,,
2013/10/26 1:06,10.1,16,10.3,16,19.8,16,,,,,,,,,,,,,,,,,,,,,,
2013/10/26 1:07,9.1,16,10.1,16,10.5,16,,,,,,,,,,,,,,,,,,,,,,
2013/10/26 1:08,9.4,16,9.4,16,26.5,16,,,,,,,,,,,,,,,,,,,,,,
2013/10/26 1:09,9.7,16,9.7,16,17.2,16,,,,,,,,,,,,,,,,,,,,,,
2013/10/26 1:10,9.9,16,9.9,16,17.1,1,,,,,,,,,,,,,,,,,,,,,,
2013/10/26 1:11,9.8,16,10,16,16.1,1,,,,,,,,,,,,,,,,,,,,,,
2013/10/26 1:12,9.5,16,9.8,16,12.2,16,,,,,,,,,,,,,,,,,,,,,,
2013/10/26 1:13,9.2,16,9.6,16,13.8,16,,,,,,,,,,,,,,,,,,,,,,
2013/10/26 1:14,9,16,9.2,16,19.4,16,,,,,,,,,,,,,,,,,,,,,,
2013/10/26 1:15,8.9,16,9,16,19.5,16,,,,,,,,,,,,,,,,,,,,,,
2013/10/26 1:16,8.7,16,9.1,16,17.6,14,,,,,,,,,,,,,,,,,,,,,,
2013/10/26 1:17,8.9,16,8.9,16,15.1,1,,,,,,,,,,,,,,,,,,,,,,
2013/10/26 1:18,8.6,16,8.9,16,16.7,16,,,,,,,,,,,,,,,,,,,,,,
2013/10/26 1:19,8.3,16,8.6,16,13.5,15,,,,,,,,,,,,,,,,,,,,,,
2013/10/26 1:20,8,16,8.3,16,11.9,16,,,,,,,,,,,,,,,,,,,,,,
2013/10/26 1:21,8,16,8,16,12.7,16,,,,,,,,,,,,,,,,,,,,,,
2013/10/26 1:22,8,16,8.1,16,13.9,16,,,,,,,,,,,,,,,,,,,,,,
2013/10/26 1:23,8,16,8,16,17.1,1,,,,,,,,,,,,,,,,,,,,,,
2013/10/26 1:24,7.6,16,8,16,11.6,2,,,,,,,,,,,,,,,,,,,,,,
2013/10/26 1:25,7.7,16,7.7,16,18.7,16,,,,,,,,,,,,,,,,,,,,,,
2013/10/26 1:26,7.5,16,7.7,16,10.7,16,,,,,,,,,,,,,,,,,,,,,,
2013/10/26 1:27,7.3,16,7.4,16,10.7,1,,,,,,,,,,,,,,,,,,,,,,
2013/10/26 1:28,7.1,16,7.4,16,12.8,2,,,,,,,,,,,,,,,,,,,,,,
2013/10/26 1:29,6.7,16,7.1,16,8.2,16,,,,,,,,,,,,,,,,,,,,,,
2013/10/26 1:30,6.5,16,6.7,16,10.2,15,,,,,,,,,,,,,,,,,,,,,,
2013/10/26 1:31,6.3,16,6.5,16,9.8,16,,,,,,,,,,,,,,,,,,,,,,
2013/10/26 1:32,6.3,16,6.3,16,13,16,,,,,,,,,,,,,,,,,,,,,,
2013/10/26 1:33,6.2,16,6.4,16,11.6,15,,,,,,,,,,,,,,,,,,,,,,
2013/10/26 1:34,6.4,16,6.4,16,11.9,1,,,,,,,,,,,,,,,,,,,,,,
2013/10/26 1:35,6.9,16,6.9,16,27.2,16,,,,,,,,,,,,,,,,,,,,,,
2013/10/26 1:36,7.2,16,7.2,16,18.3,15,,,,,,,,,,,,,,,,,,,,,,
2013/10/26 1:37,7.7,16,7.7,16,16.6,16,,,,,,,,,,,,,,,,,,,,,,
2013/10/26 1:38,7.9,16,7.9,16,12.2,16,,,,,,,,,,,,,,,,,,,,,,
2013/10/26 1:39,7.8,16,7.9,16,9.4,16,,,,,,,,,,,,,,,,,,,,,,
2013/10/26 1:40,7.8,16,8,16,8.5,1,,,,,,,,,,,,,,,,,,,,,,
2013/10/26 1:41,7.7,16,7.9,16,7.8,15,,,,,,,,,,,,,,,,,,,,,,
2013/10/26 1:42,7.8,16,7.8,16,11.6,1,,,,,,,,,,,,,,,,,,,,,,
2013/10/26 1:43,8,16,8,16,13,15,,,,,,,,,,,,,,,,,,,,,,
2013/10/26 1:44,8.1,16,8.1,16,17.1,2,,,,,,,,,,,,,,,,,,,,,,
2013/10/26 1:45,7.7,16,8.2,16,19.6,15,,,,,,,,,,,,,,,,,,,,,,
2013/10/26 1:46,7.7,16,7.8,16,15.9,16,,,,,,,,,,,,,,,,,,,,,,
2013/10/26 1:47,7.9,16,7.9,16,20.2,16,,,,,,,,,,,,,,,,,,,,,,
2013/10/26 1:48,8.1,16,8.2,16,16,16,,,,,,,,,,,,,,,,,,,,,,
2013/10/26 1:49,8.5,16,8.5,16,17.9,1,,,,,,,,,,,,,,,,,,,,,,
2013/10/26 1:50,9,16,9,16,18.4,16,,,,,,,,,,,,,,,,,,,,,,
2013/10/26 1:51,9,16,9.1,16,7.6,1,,,,,,,,,,,,,,,,,,,,,,
2013/10/26 1:52,8.9,16,9,16,11,15,,,,,,,,,,,,,,,,,,,,,,
2013/10/26 1:53,8.6,16,8.9,16,11.7,14,,,,,,,,,,,,,,,,,,,,,,
2013/10/26 1:54,8.3,16,8.6,16,12.1,15,,,,,,,,,,,,,,,,,,,,,,
2013/10/26 1:55,7.8,16,8.2,16,12.3,15,,,,,,,,,,,,,,,,,,,,,,
2013/10/26 1:56,7.4,16,7.8,16,13.2,16,,,,,,,,,,,,,,,,,,,,,,
2013/10/26 1:57,6.9,16,7.4,16,16.2,1,,,,,,,,,,,,,,,,,,,,,,
2013/10/26 1:58,7.1,16,7.1,16,24.1,16,,,,,,,,,,,,,,,,,,,,,,
2013/10/26 1:59,7.1,16,7.2,16,14,16,,,,,,,,,,,,,,,,,,,,,,
2013/10/26 2:00,7,16,7.1,16,18,16,,,,,,,,,,,,,,,,,,,,,,
2013/10/26 2:01,7,16,7,16,8.1,16,,,,,,,,,,,,,,,,,,,,,,
2013/10/26 2:02,7.1,16,7.2,16,14,1,,,,,,,,,,,,,,,,,,,,,,
2013/10/26 2:03,7.2,16,7.2,16,14.9,16,,,,,,,,,,,,,,,,,,,,,,
2013/10/26 2:04,7.9,16,7.9,16,22.1,16,,,,,,,,,,,,,,,,,,,,,,
2013/10/26 2:05,8.2,16,8.2,16,15.9,16,,,,,,,,,,,,,,,,,,,,,,
2013/10/26 2:06,8.5,16,8.5,16,16.8,15,,,,,,,,,,,,,,,,,,,,,,
2013/10/26 2:07,8.1,16,8.4,16,9.5,1,,,,,,,,,,,,,,,,,,,,,,
2013/10/26 2:08,7.7,16,8.2,16,12.6,1,,,,,,,,,,,,,,,,,,,,,,
2013/10/26 2:09,7.7,16,7.7,16,19.5,2,,,,,,,,,,,,,,,,,,,,,,
2013/10/26 2:10,8.1,16,8.1,16,19.4,16,,,,,,,,,,,,,,,,,,,,,,
2013/10/26 2:11,8.1,16,8.3,16,12.2,15,,,,,,,,,,,,,,,,,,,,,,
2013/10/26 2:12,7.8,16,8.1,16,9.1,1,,,,,,,,,,,,,,,,,,,,,,
2013/10/26 2:13,8.2,16,8.2,16,19.6,1,,,,,,,,,,,,,,,,,,,,,,
2013/10/26 2:14,8,16,8.3,16,17.8,1,,,,,,,,,,,,,,,,,,,,,,
2013/10/26 2:15,8,16,8,16,25.3,16,,,,,,,,,,,,,,,,,,,,,,
2013/10/26 2:16,8.1,16,8.2,16,20.2,16,,,,,,,,,,,,,,,,,,,,,,
2013/10/26 2:17,8.3,16,8.3,16,14.9,13,,,,,,,,,,,,,,,,,,,,,,
2013/10/26 2:18,8.5,16,8.5,16,17.5,16,,,,,,,,,,,,,,,,,,,,,,
2013/10/26 2:19,8.8,16,8.8,16,18.6,16,,,,,,,,,,,,,,,,,,,,,,
2013/10/26 2:20,8.3,16,8.8,16,18.7,15,,,,,,,,,,,,,,,,,,,,,,
2013/10/26 2:21,8.3,16,8.3,16,9.2,16,,,,,,,,,,,,,,,,,,,,,,
2013/10/26 2:22,8.1,16,8.3,16,6,16,,,,,,,,,,,,,,,,,,,,,,
2013/10/26 2:23,8.1,16,8.1,16,22.3,16,,,,,,,,,,,,,,,,,,,,,,
2013/10/26 2:24,8.6,16,8.6,16,21.8,1,,,,,,,,,,,,,,,,,,,,,,
2013/10/26 2:25,8.7,16,9,16,21.5,15,,,,,,,,,,,,,,,,,,,,,,
2013/10/26 2:26,8.7,16,8.7,16,15.6,15,,,,,,,,,,,,,,,,,,,,,,
2013/10/26 2:27,8.7,16,8.7,16,17.9,2,,,,,,,,,,,,,,,,,,,,,,
2013/10/26 2:28,8.5,16,8.8,16,12.3,16,,,,,,,,,,,,,,,,,,,,,,
2013/10/26 2:29,7.9,16,8.5,16,12.2,1,,,,,,,,,,,,,,,,,,,,,,
2013/10/26 2:30,7.8,16,7.8,16,12.1,15,,,,,,,,,,,,,,,,,,,,,,
2013/10/26 2:31,8.1,16,8.1,16,19.7,15,,,,,,,,,,,,,,,,,,,,,,
2013/10/26 2:32,9,16,9,16,15.8,1,,,,,,,,,,,,,,,,,,,,,,
2013/10/26 2:33,8.7,16,9,16,14.2,16,,,,,,,,,,,,,,,,,,,,,,
2013/10/26 2:34,8,16,8.6,16,21.1,15,,,,,,,,,,,,,,,,,,,,,,
2013/10/26 2:35,7.6,16,7.9,16,15.7,1,,,,,,,,,,,,,,,,,,,,,,
2013/10/26 2:36,8.1,16,8.1,16,21.2,16,,,,,,,,,,,,,,,,,,,,,,
2013/10/26 2:37,8,16,8.2,16,14.2,15,,,,,,,,,,,,,,,,,,,,,,
2013/10/26 2:38,7.7,16,8,16,7.5,16,,,,,,,,,,,,,,,,,,,,,,
2013/10/26 2:39,7.7,16,7.7,16,11.8,16,,,,,,,,,,,,,,,,,,,,,,
2013/10/26 2:40,7.8,16,7.9,16,17.1,1,,,,,,,,,,,,,,,,,,,,,,
2013/10/26 2:41,7.8,16,8,16,20.9,1,,,,,,,,,,,,,,,,,,,,,,
2013/10/26 2:42,7.5,16,7.8,16,17,16,,,,,,,,,,,,,,,,,,,,,,
2013/10/26 2:43,8.1,16,8.1,16,21.5,15,,,,,,,,,,,,,,,,,,,,,,
2013/10/26 2:44,8.2,16,8.4,16,22.4,16,,,,,,,,,,,,,,,,,,,,,,
2013/10/26 2:45,8.3,16,8.4,16,16,16,,,,,,,,,,,,,,,,,,,,,,
2013/10/26 2:46,7.5,16,8.3,16,11.6,16,,,,,,,,,,,,,,,,,,,,,,
2013/10/26 2:47,7.7,16,7.7,16,16.7,16,,,,,,,,,,,,,,,,,,,,,,
2013/10/26 2:48,8.3,16,8.3,16,19.8,16,,,,,,,,,,,,,,,,,,,,,,
2013/10/26 2:49,8.5,16,8.6,16,13.2,15,,,,,,,,,,,,,,,,,,,,,,
2013/10/26 2:50,8,16,8.4,16,7.9,1,,,,,,,,,,,,,,,,,,,,,,
2013/10/26 2:51,7.7,16,8,16,9.1,14,,,,,,,,,,,,,,,,,,,,,,
2013/10/26 2:52,7.8,16,7.8,16,13.9,16,,,,,,,,,,,,,,,,,,,,,,
2013/10/26 2:53,7.2,16,7.6,16,13.3,16,,,,,,,,,,,,,,,,,,,,,,
2013/10/26 2:54,6.7,16,7.2,16,10.2,1,,,,,,,,,,,,,,,,,,,,,,
2013/10/26 2:55,7,16,7,16,16.8,16,,,,,,,,,,,,,,,,,,,,,,
2013/10/26 2:56,7.5,16,7.5,16,16.5,16,,,,,,,,,,,,,,,,,,,,,,
2013/10/26 2:57,7.3,16,7.6,16,16.1,16,,,,,,,,,,,,,,,,,,,,,,
2013/10/26 2:58,7.9,16,7.9,16,24.3,1,,,,,,,,,,,,,,,,,,,,,,
2013/10/26 2:59,7.8,16,8,16,15,16,,,,,,,,,,,,,,,,,,,,,,
2013/10/26 3:00,8.1,16,8.1,16,12.8,1,,,,,,,,,,,,,,,,,,,,,,
2013/10/26 3:01,8.7,16,8.7,16,16.5,16,,,,,,,,,,,,,,,,,,,,,,
2013/10/26 3:02,9.3,16,9.3,16,23.8,16,,,,,,,,,,,,,,,,,,,,,,
2013/10/26 3:03,9.6,16,9.6,16,16.9,16,,,,,,,,,,,,,,,,,,,,,,
2013/10/26 3:04,9.6,16,9.8,16,14,15,,,,,,,,,,,,,,,,,,,,,,
2013/10/26 3:05,9.2,16,9.6,16,14.2,16,,,,,,,,,,,,,,,,,,,,,,
2013/10/26 3:06,8.7,16,9.2,16,12.6,16,,,,,,,,,,,,,,,,,,,,,,
2013/10/26 3:07,8.4,16,8.6,16,8.3,15,,,,,,,,,,,,,,,,,,,,,,
2013/10/26 3:08,7.7,16,8.2,16,14.4,16,,,,,,,,,,,,,,,,,,,,,,
2013/10/26 3:09,7.8,16,8,16,19.3,16,,,,,,,,,,,,,,,,,,,,,,
2013/10/26 3:10,7.6,16,7.9,16,9.9,15,,,,,,,,,,,,,,,,,,,,,,
2013/10/26 3:11,7.2,16,7.5,16,16,16,,,,,,,,,,,,,,,,,,,,,,
2013/10/26 3:12,6.9,16,7.2,16,21,1,,,,,,,,,,,,,,,,,,,,,,
2013/10/26 3:13,6.9,16,7,16,18.6,16,,,,,,,,,,,,,,,,,,,,,,
2013/10/26 3:14,6.9,16,6.9,16,14.8,16,,,,,,,,,,,,,,,,,,,,,,
2013/10/26 3:15,6.5,16,6.9,16,5.8,14,,,,,,,,,,,,,,,,,,,,,,
2013/10/26 3:16,6.1,16,6.4,16,6,1,,,,,,,,,,,,,,,,,,,,,,
2013/10/26 3:17,6.6,16,6.7,16,16.2,2,,,,,,,,,,,,,,,,,,,,,,
2013/10/26 3:18,6.3,16,6.6,16,14.3,1,,,,,,,,,,,,,,,,,,,,,,
2013/10/26 3:19,6.4,16,6.4,16,22.2,15,,,,,,,,,,,,,,,,,,,,,,
2013/10/26 3:20,6.8,16,6.8,16,14.3,16,,,,,,,,,,,,,,,,,,,,,,
2013/10/26 3:21,7.2,16,7.2,16,16.3,1,,,,,,,,,,,,,,,,,,,,,,
2013/10/26 3:22,7.4,16,7.4,16,24.7,16,,,,,,,,,,,,,,,,,,,,,,
2013/10/26 3:23,7.9,16,8,16,24.1,15,,,,,,,,,,,,,,,,,,,,,,
2013/10/26 3:24,7.7,16,7.9,16,12.4,1,,,,,,,,,,,,,,,,,,,,,,
2013/10/26 3:25,8.3,16,8.3,16,17.6,16,,,,,,,,,,,,,,,,,,,,,,
2013/10/26 3:26,8.9,16,8.9,16,14.4,1,,,,,,,,,,,,,,,,,,,,,,
2013/10/26 3:27,8.6,16,8.8,16,11.7,1,,,,,,,,,,,,,,,,,,,,,,
2013/10/26 3:28,9.2,16,9.2,16,18.6,15,,,,,,,,,,,,,,,,,,,,,,
2013/10/26 3:29,9.3,16,9.3,16,19.2,16,,,,,,,,,,,,,,,,,,,,,,
2013/10/26 3:30,9.3,16,9.3,16,16.3,16,,,,,,,,,,,,,,,,,,,,,,
2013/10/26 3:31,9.1,16,9.4,16,16,16,,,,,,,,,,,,,,,,,,,,,,
2013/10/26 3:32,8.8,16,9.1,16,22.6,16,,,,,,,,,,,,,,,,,,,,,,
2013/10/26 3:33,8.9,16,8.9,16,25.6,15,,,,,,,,,,,,,,,,,,,,,,
2013/10/26 3:34,9.1,16,9.1,16,14.4,16,,,,,,,,,,,,,,,,,,,,,,
2013/10/26 3:35,8.8,16,9.2,16,12.2,3,,,,,,,,,,,,,,,,,,,,,,
2013/10/26 3:36,8.6,16,8.7,16,11,15,,,,,,,,,,,,,,,,,,,,,,
2013/10/26 3:37,8.9,16,8.9,16,14.5,2,,,,,,,,,,,,,,,,,,,,,,
2013/10/26 3:38,9.1,16,9.1,16,18,16,,,,,,,,,,,,,,,,,,,,,,
2013/10/26 3:39,9.1,16,9.1,16,24.1,16,,,,,,,,,,,,,,,,,,,,,,
2013/10/26 3:40,9.1,16,9.2,16,18.9,16,,,,,,,,,,,,,,,,,,,,,,
2013/10/26 3:41,9.1,16,9.1,16,13.9,16,,,,,,,,,,,,,,,,,,,,,,
2013/10/26 3:42,8.9,16,9.2,16,15,15,,,,,,,,,,,,,,,,,,,,,,
2013/10/26 3:43,8,16,8.8,16,14.7,16,,,,,,,,,,,,,,,,,,,,,,
2013/10/26 3:44,8.3,16,8.3,16,14.8,15,,,,,,,,,,,,,,,,,,,,,,
2013/10/26 3:45,8.4,16,8.4,16,16.9,16,,,,,,,,,,,,,,,,,,,,,,
2013/10/26 3:46,8.8,16,8.8,16,16.2,2,,,,,,,,,,,,,,,,,,,,,,
2013/10/26 3:47,8.8,16,8.9,16,16.6,16,,,,,,,,,,,,,,,,,,,,,,
2013/10/26 3:48,8.5,16,8.8,16,15.6,15,,,,,,,,,,,,,,,,,,,,,,
2013/10/26 3:49,8.3,16,8.5,16,15.9,15,,,,,,,,,,,,,,,,,,,,,,
2013/10/26 3:50,8,16,8.3,16,17,16,,,,,,,,,,,,,,,,,,,,,,
2013/10/26 3:51,8.6,16,8.7,16,22.8,16,,,,,,,,,,,,,,,,,,,,,,
2013/10/26 3:52,8.8,16,8.9,16,20.2,16,,,,,,,,,,,,,,,,,,,,,,
2013/10/26 3:53,8.8,16,9,16,15.8,15,,,,,,,,,,,,,,,,,,,,,,
2013/10/26 3:54,8.8,16,8.9,16,19.2,16,,,,,,,,,,,,,,,,,,,,,,
2013/10/26 3:55,8.9,16,8.9,16,16.1,1,,,,,,,,,,,,,,,,,,,,,,
2013/10/26 3:56,8.6,16,9,16,19.8,16,,,,,,,,,,,,,,,,,,,,,,
2013/10/26 3:57,8.5,16,8.6,16,16.8,15,,,,,,,,,,,,,,,,,,,,,,
2013/10/26 3:58,8.3,16,8.5,16,10.1,1,,,,,,,,,,,,,,,,,,,,,,
2013/10/26 3:59,8.4,16,8.4,16,19.6,16,,,,,,,,,,,,,,,,,,,,,,
2013/10/26 4:00,9.2,16,9.2,16,23.9,16,,,,,,,,,,,,,,,,,,,,,,
2013/10/26 4:01,9.2,16,9.3,16,19.5,16,,,,,,,,,,,,,,,,,,,,,,
2013/10/26 4:02,8.8,16,9.1,16,14.4,16,,,,,,,,,,,,,,,,,,,,,,
2013/10/26 4:03,8.8,16,8.8,16,12.3,16,,,,,,,,,,,,,,,,,,,,,,
2013/10/26 4:04,8.4,16,8.9,16,10.9,14,,,,,,,,,,,,,,,,,,,,,,
2013/10/26 4:05,8.2,16,8.5,16,10.6,16,,,,,,,,,,,,,,,,,,,,,,
2013/10/26 4:06,8.7,16,8.7,16,20.6,15,,,,,,,,,,,,,,,,,,,,,,
2013/10/26 4:07,8.9,16,8.9,16,16.5,1,,,,,,,,,,,,,,,,,,,,,,
2013/10/26 4:08,9.4,16,9.4,16,24.3,16,,,,,,,,,,,,,,,,,,,,,,
2013/10/26 4:09,9.5,16,9.6,16,17.5,16,,,,,,,,,,,,,,,,,,,,,,
2013/10/26 4:10,9.2,16,9.4,16,19.6,15,,,,,,,,,,,,,,,,,,,,,,
2013/10/26 4:11,9.1,16,9.2,16,21.4,2,,,,,,,,,,,,,,,,,,,,,,
2013/10/26 4:12,9.8,16,9.8,16,22.2,16,,,,,,,,,,,,,,,,,,,,,,
2013/10/26 4:13,9.7,16,9.8,16,15.8,16,,,,,,,,,,,,,,,,,,,,,,
2013/10/26 4:14,9.6,16,9.7,16,10.7,1,,,,,,,,,,,,,,,,,,,,,,
2013/10/26 4:15,9.9,16,9.9,16,17.6,1,,,,,,,,,,,,,,,,,,,,,,
2013/10/26 4:16,9.5,16,9.8,16,13,15,,,,,,,,,,,,,,,,,,,,,,
2013/10/26 4:17,9.2,16,9.5,16,13,16,,,,,,,,,,,,,,,,,,,,,,
2013/10/26 4:18,8.8,16,9.2,16,14.5,2,,,,,,,,,,,,,,,,,,,,,,
2013/10/26 4:19,8.5,16,8.8,16,14,1,,,,,,,,,,,,,,,,,,,,,,
2013/10/26 4:20,8.1,16,8.5,16,12.2,16,,,,,,,,,,,,,,,,,,,,,,
2013/10/26 4:21,7.5,16,8,16,14.3,1,,,,,,,,,,,,,,,,,,,,,,
2013/10/26 4:22,6.9,16,7.4,16,13.9,16,,,,,,,,,,,,,,,,,,,,,,
2013/10/26 4:23,7.3,16,7.3,16,18.7,16,,,,,,,,,,,,,,,,,,,,,,
2013/10/26 4:24,7.7,16,7.7,16,15.8,1,,,,,,,,,,,,,,,,,,,,,,
2013/10/26 4:25,7.7,16,7.8,16,15.9,16,,,,,,,,,,,,,,,,,,,,,,
2013/10/26 4:26,7.6,16,7.7,16,16.2,15,,,,,,,,,,,,,,,,,,,,,,
2013/10/26 4:27,8,16,8,16,23.3,2,,,,,,,,,,,,,,,,,,,,,,
2013/10/26 4:28,7.7,16,8.1,16,11.8,1,,,,,,,,,,,,,,,,,,,,,,
2013/10/26 4:29,8,16,8,16,16.9,16,,,,,,,,,,,,,,,,,,,,,,
2013/10/26 4:30,8.5,16,8.6,16,24.6,16,,,,,,,,,,,,,,,,,,,,,,
2013/10/26 4:31,8.7,16,8.7,16,19.7,16,,,,,,,,,,,,,,,,,,,,,,
2013/10/26 4:32,9,16,9.1,16,25.3,16,,,,,,,,,,,,,,,,,,,,,,
2013/10/26 4:33,9.2,16,9.2,16,24.8,16,,,,,,,,,,,,,,,,,,,,,,
2013/10/26 4:34,9.2,16,9.3,16,21.3,1,,,,,,,,,,,,,,,,,,,,,,
2013/10/26 4:35,9.2,16,9.3,16,19.2,1,,,,,,,,,,,,,,,,,,,,,,
2013/10/26 4:36,9.3,16,9.3,16,17.6,16,,,,,,,,,,,,,,,,,,,,,,
2013/10/26 4:37,8.9,16,9.4,16,13.6,16,,,,,,,,,,,,,,,,,,,,,,
2013/10/26 4:38,9.4,16,9.4,16,17.8,16,,,,,,,,,,,,,,,,,,,,,,
2013/10/26 4:39,9.4,16,9.5,16,18.8,1,,,,,,,,,,,,,,,,,,,,,,
2013/10/26 4:40,9.3,16,9.3,16,20.7,16,,,,,,,,,,,,,,,,,,,,,,
2013/10/26 4:41,9.3,16,9.4,16,16.1,16,,,,,,,,,,,,,,,,,,,,,,
2013/10/26 4:42,9.2,16,9.6,16,14.3,16,,,,,,,,,,,,,,,,,,,,,,
2013/10/26 4:43,9,16,9.3,16,16.1,16,,,,,,,,,,,,,,,,,,,,,,
2013/10/26 4:44,9,16,9.2,16,16.7,2,,,,,,,,,,,,,,,,,,,,,,
2013/10/26 4:45,9.2,16,9.3,16,19,16,,,,,,,,,,,,,,,,,,,,,,
2013/10/26 4:46,9.4,16,9.6,16,18,16,,,,,,,,,,,,,,,,,,,,,,
2013/10/26 4:47,9.8,16,9.8,16,16.5,16,,,,,,,,,,,,,,,,,,,,,,
2013/10/26 4:48,9.1,16,9.8,16,7.5,16,,,,,,,,,,,,,,,,,,,,,,
2013/10/26 4:49,8.9,16,9.1,16,16.6,15,,,,,,,,,,,,,,,,,,,,,,
2013/10/26 4:50,8.5,16,8.8,16,18.5,16,,,,,,,,,,,,,,,,,,,,,,
2013/10/26 4:51,8.7,16,8.8,16,21.9,15,,,,,,,,,,,,,,,,,,,,,,
2013/10/26 4:52,8.8,16,8.8,16,16.8,16,,,,,,,,,,,,,,,,,,,,,,
2013/10/26 4:53,8.6,16,8.8,16,17.7,15,,,,,,,,,,,,,,,,,,,,,,
2013/10/26 4:54,8.5,16,8.6,16,15.9,16,,,,,,,,,,,,,,,,,,,,,,
2013/10/26 4:55,8.4,16,8.6,16,17.8,1,,,,,,,,,,,,,,,,,,,,,,
2013/10/26 4:56,8.6,16,8.6,16,23.1,1,,,,,,,,,,,,,,,,,,,,,,
2013/10/26 4:57,8.7,16,8.7,16,18.8,16,,,,,,,,,,,,,,,,,,,,,,
2013/10/26 4:58,9.6,16,9.6,16,20.7,16,,,,,,,,,,,,,,,,,,,,,,
2013/10/26 4:59,9.7,16,9.8,16,16.2,16,,,,,,,,,,,,,,,,,,,,,,
2013/10/26 5:00,9.7,16,9.8,16,13.5,1,,,,,,,,,,,,,,,,,,,,,,
2013/10/26 5:01,9.3,16,9.7,16,15.7,1,,,,,,,,,,,,,,,,,,,,,,
2013/10/26 5:02,9.2,16,9.2,16,20.2,15,,,,,,,,,,,,,,,,,,,,,,
2013/10/26 5:03,9.1,16,9.3,16,14.2,15,,,,,,,,,,,,,,,,,,,,,,
2013/10/26 5:04,9.2,16,9.2,16,16.8,1,,,,,,,,,,,,,,,,,,,,,,
2013/10/26 5:05,9.3,16,9.3,16,17.7,1,,,,,,,,,,,,,,,,,,,,,,
2013/10/26 5:06,9.3,16,9.4,16,25.9,16,,,,,,,,,,,,,,,,,,,,,,
2013/10/26 5:07,9.3,16,9.4,16,20.4,16,,,,,,,,,,,,,,,,,,,,,,
2013/10/26 5:08,9.3,16,9.5,16,24.5,1,,,,,,,,,,,,,,,,,,,,,,
2013/10/26 5:09,9.3,16,9.4,16,15.6,16,,,,,,,,,,,,,,,,,,,,,,
2013/10/26 5:10,9.3,16,9.4,16,20.9,15,,,,,,,,,,,,,,,,,,,,,,
2013/10/26 5:11,10.3,16,10.3,16,27.2,16,,,,,,,,,,,,,,,,,,,,,,
2013/10/26 5:12,10.8,16,10.8,16,19.5,16,,,,,,,,,,,,,,,,,,,,,,
2013/10/26 5:13,11,16,11,16,18.9,16,,,,,,,,,,,,,,,,,,,,,,
2013/10/26 5:14,11.1,16,11.1,16,18.3,16,,,,,,,,,,,,,,,,,,,,,,
2013/10/26 5:15,11.5,16,11.5,16,24.9,16,,,,,,,,,,,,,,,,,,,,,,
2013/10/26 5:16,11.3,16,11.4,16,25.6,1,,,,,,,,,,,,,,,,,,,,,,
2013/10/26 5:17,11.3,16,11.3,16,16.8,16,,,,,,,,,,,,,,,,,,,,,,
2013/10/26 5:18,10.6,16,11.1,16,14.3,1,,,,,,,,,,,,,,,,,,,,,,
2013/10/26 5:19,10.9,16,10.9,16,19,16,,,,,,,,,,,,,,,,,,,,,,
2013/10/26 5:20,10.9,16,10.9,16,17.6,15,,,,,,,,,,,,,,,,,,,,,,
2013/10/26 5:21,10.5,16,10.9,16,19.4,1,,,,,,,,,,,,,,,,,,,,,,
2013/10/26 5:22,10.4,16,10.6,16,18.3,16,,,,,,,,,,,,,,,,,,,,,,
2013/10/26 5:23,9.9,16,10.3,16,12.5,1,,,,,,,,,,,,,,,,,,,,,,
2013/10/26 5:24,9.6,16,9.9,16,14.3,16,,,,,,,,,,,,,,,,,,,,,,
2013/10/26 5:25,9,16,9.5,16,15.7,16,,,,,,,,,,,,,,,,,,,,,,
2013/10/26 5:26,8.9,16,8.9,16,18.8,16,,,,,,,,,,,,,,,,,,,,,,
2013/10/26 5:27,8.9,16,9,16,20.7,15,,,,,,,,,,,,,,,,,,,,,,
2013/10/26 5:28,9.4,16,9.4,16,19,1,,,,,,,,,,,,,,,,,,,,,,
2013/10/26 5:29,9.8,16,9.8,16,20.1,16,,,,,,,,,,,,,,,,,,,,,,
2013/10/26 5:30,10.1,16,10.1,16,22.8,16,,,,,,,,,,,,,,,,,,,,,,
2013/10/26 5:31,9.7,16,10.1,16,17.2,16,,,,,,,,,,,,,,,,,,,,,,
2013/10/26 5:32,9.5,16,9.7,16,15.3,16,,,,,,,,,,,,,,,,,,,,,,
2013/10/26 5:33,9.7,16,9.7,16,18.4,16,,,,,,,,,,,,,,,,,,,,,,
2013/10/26 5:34,9.7,16,9.9,16,18.3,2,,,,,,,,,,,,,,,,,,,,,,
2013/10/26 5:35,9.5,16,9.7,16,6.8,15,,,,,,,,,,,,,,,,,,,,,,
2013/10/26 5:36,9.7,16,9.7,16,23,16,,,,,,,,,,,,,,,,,,,,,,
2013/10/26 5:37,9.9,16,9.9,16,23.2,16,,,,,,,,,,,,,,,,,,,,,,
2013/10/26 5:38,9.9,16,10,16,21.8,16,,,,,,,,,,,,,,,,,,,,,,
2013/10/26 5:39,9.6,16,9.9,16,14.5,16,,,,,,,,,,,,,,,,,,,,,,
2013/10/26 5:40,9.2,16,9.6,16,16.3,15,,,,,,,,,,,,,,,,,,,,,,
2013/10/26 5:41,9,16,9.2,16,19.6,16,,,,,,,,,,,,,,,,,,,,,,
2013/10/26 5:42,9.2,16,9.2,16,16.6,1,,,,,,,,,,,,,,,,,,,,,,
2013/10/26 5:43,9.5,16,9.5,16,24.9,1,,,,,,,,,,,,,,,,,,,,,,
2013/10/26 5:44,9.3,16,9.5,16,21.2,16,,,,,,,,,,,,,,,,,,,,,,
2013/10/26 5:45,9.6,16,9.6,16,13.9,15,,,,,,,,,,,,,,,,,,,,,,
2013/10/26 5:46,9.8,16,9.9,16,26.2,15,,,,,,,,,,,,,,,,,,,,,,
2013/10/26 5:47,9.2,16,9.7,16,12.5,1,,,,,,,,,,,,,,,,,,,,,,
2013/10/26 5:48,9.4,16,9.4,16,22,16,,,,,,,,,,,,,,,,,,,,,,
2013/10/26 5:49,9.7,16,9.7,16,23,16,,,,,,,,,,,,,,,,,,,,,,
2013/10/26 5:50,10,16,10,16,25.4,16,,,,,,,,,,,,,,,,,,,,,,
2013/10/26 5:51,10.7,16,10.7,16,22.8,16,,,,,,,,,,,,,,,,,,,,,,
2013/10/26 5:52,10.8,16,10.8,16,17.9,16,,,,,,,,,,,,,,,,,,,,,,
2013/10/26 5:53,10.7,16,11,16,21.3,1,,,,,,,,,,,,,,,,,,,,,,
2013/10/26 5:54,10.9,16,10.9,16,16,1,,,,,,,,,,,,,,,,,,,,,,
2013/10/26 5:55,11.3,16,11.4,16,18.9,1,,,,,,,,,,,,,,,,,,,,,,
2013/10/26 5:56,10.4,16,11.2,16,11,15,,,,,,,,,,,,,,,,,,,,,,
2013/10/26 5:57,10.3,16,10.3,16,11.9,1,,,,,,,,,,,,,,,,,,,,,,
2013/10/26 5:58,9.5,16,10.4,16,12.3,1,,,,,,,,,,,,,,,,,,,,,,
2013/10/26 5:59,9,16,9.5,16,17,16,,,,,,,,,,,,,,,,,,,,,,
2013/10/26 6:00,9,16,9.3,16,15.9,1,,,,,,,,,,,,,,,,,,,,,,
2013/10/26 6:01,8.9,16,9,16,20.2,14,,,,,,,,,,,,,,,,,,,,,,
2013/10/26 6:02,8.8,16,8.8,16,24.1,15,,,,,,,,,,,,,,,,,,,,,,
2013/10/26 6:03,8.9,16,8.9,16,18.1,16,,,,,,,,,,,,,,,,,,,,,,
2013/10/26 6:04,8.9,16,9.2,16,21.5,15,,,,,,,,,,,,,,,,,,,,,,
2013/10/26 6:05,8.8,16,8.9,16,16.5,16,,,,,,,,,,,,,,,,,,,,,,
2013/10/26 6:06,9.3,16,9.3,16,18.5,16,,,,,,,,,,,,,,,,,,,,,,
2013/10/26 6:07,9.7,16,9.7,16,22.9,16,,,,,,,,,,,,,,,,,,,,,,
2013/10/26 6:08,10,16,10,16,15.9,16,,,,,,,,,,,,,,,,,,,,,,
2013/10/26 6:09,10.5,16,10.5,16,19.6,15,,,,,,,,,,,,,,,,,,,,,,
2013/10/26 6:10,10.1,16,10.5,16,20.3,16,,,,,,,,,,,,,,,,,,,,,,
2013/10/26 6:11,9.8,16,10.2,16,15.2,16,,,,,,,,,,,,,,,,,,,,,,
2013/10/26 6:12,9.3,16,9.7,16,14.8,16,,,,,,,,,,,,,,,,,,,,,,
2013/10/26 6:13,9.2,16,9.4,16,21.9,15,,,,,,,,,,,,,,,,,,,,,,
2013/10/26 6:14,9.4,16,9.4,16,21.1,1,,,,,,,,,,,,,,,,,,,,,,
2013/10/26 6:15,9.4,16,9.6,16,13.6,16,,,,,,,,,,,,,,,,,,,,,,
2013/10/26 6:16,9.3,16,9.5,16,18.6,16,,,,,,,,,,,,,,,,,,,,,,
2013/10/26 6:17,8.7,16,9.3,16,8.5,1,,,,,,,,,,,,,,,,,,,,,,
2013/10/26 6:18,8.8,16,8.8,16,18.4,16,,,,,,,,,,,,,,,,,,,,,,
2013/10/26 6:19,8.5,16,8.8,16,14.2,14,,,,,,,,,,,,,,,,,,,,,,
2013/10/26 6:20,8.7,16,8.7,16,18.6,16,,,,,,,,,,,,,,,,,,,,,,
2013/10/26 6:21,8.7,16,8.7,16,13.2,1,,,,,,,,,,,,,,,,,,,,,,
2013/10/26 6:22,8.9,16,8.9,16,16.6,2,,,,,,,,,,,,,,,,,,,,,,
2013/10/26 6:23,8.9,16,8.9,16,18.7,16,,,,,,,,,,,,,,,,,,,,,,
2013/10/26 6:24,8.8,16,8.8,16,22,16,,,,,,,,,,,,,,,,,,,,,,
2013/10/26 6:25,9.2,16,9.2,16,22.9,16,,,,,,,,,,,,,,,,,,,,,,
2013/10/26 6:26,9,16,9.2,16,14.2,15,,,,,,,,,,,,,,,,,,,,,,
2013/10/26 6:27,9.5,16,9.5,16,14.8,1,,,,,,,,,,,,,,,,,,,,,,
2013/10/26 6:28,9.7,16,9.7,16,16.5,16,,,,,,,,,,,,,,,,,,,,,,
2013/10/26 6:29,9.4,16,9.7,16,18.4,16,,,,,,,,,,,,,,,,,,,,,,
2013/10/26 6:30,9.2,16,9.4,16,18.5,1,,,,,,,,,,,,,,,,,,,,,,
2013/10/26 6:31,8.9,16,9.2,16,11.6,16,,,,,,,,,,,,,,,,,,,,,,
2013/10/26 6:32,8.6,16,8.8,16,10.8,1,,,,,,,,,,,,,,,,,,,,,,
2013/10/26 6:33,7.9,16,8.5,16,9.4,16,,,,,,,,,,,,,,,,,,,,,,
2013/10/26 6:34,7.3,16,7.9,16,7.5,1,,,,,,,,,,,,,,,,,,,,,,
2013/10/26 6:35,6.6,16,7.3,16,10.9,15,,,,,,,,,,,,,,,,,,,,,,